Location: ????????
(55.3939°N, 37.4780°E)
Time: 08:09:59
(UTC+00:00)

Cosmos 2218 Rocket - Pass Details

Date: 14 April 2026
Orbit: 955 x 1005 km, 82.9° (Epoch: 9 May)

Event Time Altitude Azimuth Distance (km) Brightness Sun altitude
Rises 17:54:45 0° 180° (S) 3,627 6.6 -11.1°
Reaches altitude 10° 17:57:15 10° 178° (S) 2,683 5.9 -11.4°
Maximum altitude 18:03:19 70° 96° (E) 1,019 3.9 -12.1°
Drops below altitude 10° 18:09:27 10° 15° (NNE) 2,705 6.6 -12.8°
Sets 18:11:59 0° 13° (NNE) 3,659 7.4 -13.0°
